Laurinburg-Maxton, NC

10:21 AM EDT on May 29, 2017 (GMT -0400)
Laurinburg-Maxton

Weather History for KMEB - March, 2014

Change the Weather History Date:

Wednesday, March 26, 2014

  Actual Average (KHFF) Record (KHFF)
Temperature  
Mean Temperature 38 °F -  
Max Temperature 48 °F 63 °F 82 °F (2002)
Min Temperature 28 °F 43 °F 28 °F (2014)
Degree Days  
Heating Degree Days 27    
Moisture  
Dew Point 18 °F    
Average Humidity 50    
Maximum Humidity 78    
Minimum Humidity 21    
Precipitation  
Precipitation 0.00 in - - ()
Sea Level Pressure  
Sea Level Pressure 30.22 in    
Wind  
Wind Speed 9 mph (NW)    
Max Wind Speed 18 mph    
Max Gust Speed 25 mph    
Visibility 10 miles    
Events      
Averages and records for this station are not official NWS values.
T = Trace of Precipitation, MM = Missing Value Source: NWS Daily Summary

Daily Weather History Graph

Daily Weather History Graph

Search for Another Location

Airport or City:

Trip Planner

Search our weather history database for the weather conditions in past years. The results will help you decide how hot, cold, wet, or windy it might be!

Date:

Astronomy

Mar. 26, 2014 Rise Set
Actual Time 7:12 AM EDT 7:33 PM EDT
Civil Twilight 6:47 AM EDT 7:59 PM EDT
Nautical Twilight 6:17 AM EDT 8:28 PM EDT
Astronomical Twilight 5:47 AM EDT 8:59 PM EDT
Moon 4:09 AM EDT (3/26) 3:19 PM EDT (3/26)
Length of Visible Light 13h 11m
Length of Day
12h 21m
Waning Crescent, 22% of the Moon is Illuminated
Mar 26
Waning Crescent
Mar 30
New
Apr 7
First Quarter
Apr 15
Full
Apr 22
Last Quarter

Hourly Weather History & Observations

Time (EDT) Temp. Windchill Dew Point Humidity Pressure Visibility Wind Dir Wind Speed Gust Speed Precip Events Conditions
12:52 AM 33.1 °F 26.1 °F 27.0 °F 78% 30.02 in 10.0 mi NW 8.1 mph - N/A   Clear
1:52 AM 32.0 °F 25.6 °F 25.0 °F 75% 30.05 in 10.0 mi NW 6.9 mph - N/A   Clear
2:52 AM 32.0 °F 24.2 °F 24.1 °F 73% 30.06 in 10.0 mi NW 9.2 mph - N/A   Clear
3:52 AM 30.9 °F 23.5 °F 21.9 °F 69% 30.08 in 10.0 mi NW 8.1 mph - N/A   Clear
4:52 AM 30.0 °F 21.7 °F 19.9 °F 66% 30.10 in 10.0 mi WNW 9.2 mph - N/A   Clear
5:52 AM 30.0 °F 22.4 °F 19.0 °F 64% 30.12 in 10.0 mi NW 8.1 mph - N/A   Clear
6:52 AM 28.0 °F 20.8 °F 18.0 °F 66% 30.17 in 10.0 mi NW 6.9 mph - N/A   Clear
7:52 AM 28.9 °F 23.9 °F 18.0 °F 64% 30.21 in 10.0 mi NW 4.6 mph - N/A   Clear
8:52 AM 33.1 °F 25.5 °F 18.0 °F 54% 30.24 in 10.0 mi NW 9.2 mph - N/A   Clear
9:52 AM 36.0 °F 25.6 °F 16.0 °F 44% 30.26 in 10.0 mi NNW 18.4 mph 23.0 mph N/A   Clear
10:52 AM 39.0 °F 30.6 °F 16.0 °F 39% 30.28 in 10.0 mi NNW 15.0 mph 20.7 mph N/A   Clear
11:52 AM 41.0 °F 33.5 °F 15.1 °F 35% 30.28 in 10.0 mi NNW 13.8 mph 25.3 mph N/A   Clear
12:52 PM 43.0 °F 35.7 °F 14.0 °F 31% 30.28 in 10.0 mi West 15.0 mph 21.9 mph N/A   Clear
1:52 PM 46.0 °F 40.6 °F 14.0 °F 28% 30.26 in 10.0 mi NNW 11.5 mph 20.7 mph N/A   Clear
2:52 PM 48.0 °F - 12.0 °F 24% 30.25 in 10.0 mi NNW 16.1 mph 21.9 mph N/A   Clear
3:52 PM 48.9 °F - 10.9 °F 22% 30.25 in 10.0 mi WNW 15.0 mph 24.2 mph N/A   Clear
4:52 PM 48.9 °F - 10.0 °F 21% 30.23 in 10.0 mi North 12.7 mph 21.9 mph N/A   Clear
5:52 PM 48.9 °F - 10.9 °F 22% 30.25 in 10.0 mi NW 11.5 mph - N/A   Clear
6:52 PM 46.9 °F - 10.9 °F 23% 30.26 in 10.0 mi NNW 6.9 mph - N/A   Clear
7:52 PM 43.0 °F 41.3 °F 14.0 °F 31% 30.28 in 10.0 mi NNW 3.5 mph - N/A   Clear
8:52 PM 35.1 °F 30.1 °F 26.1 °F 70% 30.29 in 10.0 mi South 5.8 mph - N/A   Clear
9:52 PM 34.0 °F - 25.0 °F 70% 30.31 in 10.0 mi Calm Calm - N/A   Clear
10:52 PM 32.0 °F - 21.9 °F 66% 30.33 in 10.0 mi Calm Calm - N/A   Clear
11:52 PM 30.9 °F - 24.1 °F 76% 30.34 in 10.0 mi Calm Calm - N/A   Clear